CW4320 Weather Reports


time (UTC)temp
F
wind
direction
speed
knots
gust
knots
rain 1hr
in
rain 24hr
in
rain mn
in
humidity
%
barometer
mb
20260506195023 58 294 0.0 0.0 0.00 0.20 0.13 80 1013.6
20260506194532 58 295 0.0 0.0 0.00 0.20 0.13 80 1013.6
20260506194034 58 295 0.0 0.0 0.00 0.20 0.13 80 1013.5
20260506193524 58 294 0.0 0.0 0.00 0.20 0.13 80 1013.5
20260506193030 58 295 0.0 0.0 0.00 0.20 0.13 80 1013.5
20260506192539 58 295 0.0 0.0 0.00 0.20 0.13 80 1013.5
20260506192025 58 295 0.0 0.0 0.00 0.20 0.13 80 1013.5
20260506191537 58 295 0.0 0.0 0.00 0.20 0.13 80 1013.5
20260506191024 58 294 0.0 0.0 0.00 0.20 0.13 80 1013.5
20260506190547 58 294 0.0 0.0 0.00 0.20 0.13 80 1013.5
20260506190031 58 295 0.0 0.0 0.00 0.20 0.13 80 1013.5
20260506185026 58 295 0.0 0.0 0.00 0.24 0.13 80 1013.5
20260506184535 59 295 0.0 0.0 0.00 0.24 0.13 80 1013.5
20260506184039 59 295 0.0 0.0 0.00 0.24 0.13 80 1013.5
20260506183526 59 295 0.0 0.0 0.00 0.24 0.13 80 1013.5
20260506183031 59 295 0.0 0.9 0.00 0.24 0.13 80 1013.5
20260506182522 59 295 0.0 3.5 0.00 0.24 0.13 80 1013.6
20260506182028 59 294 0.9 3.5 0.00 0.24 0.13 80 1013.6
20260506181538 59 312 0.9 2.6 0.00 0.24 0.13 80 1013.6
20260506180602 59 312 0.9 2.6 0.00 0.24 0.13 80 1013.5
20260506180024 59 312 0.9 2.6 0.00 0.24 0.13 80 1013.5
20260506175534 59 326 1.7 3.5 0.00 0.24 0.13 80 1013.6
20260506175037 59 340 2.6 3.5 0.00 0.24 0.13 80 1013.6
20260506174526 59 340 2.6 3.5 0.00 0.24 0.13 80 1013.6
20260506174032 59 333 2.6 3.5 0.00 0.24 0.13 80 1013.6
20260506173539 59 359 1.7 3.5 0.00 0.24 0.13 80 1013.6
20260506173031 59 359 0.9 3.5 0.00 0.24 0.13 80 1013.6
20260506172539 59 321 1.7 4.3 0.00 0.24 0.13 80 1013.6
20260506172023 59 1 3.5 4.3 0.00 0.24 0.13 80 1013.6
20260506171533 59 360 3.5 4.3 0.00 0.24 0.13 80 1013.6
20260506171039 59 360 3.5 5.2 0.00 0.24 0.13 80 1013.6
20260506170600 59 359 3.5 5.2 0.00 0.24 0.13 80 1013.6
20260506170023 59 359 1.7 4.3 0.00 0.24 0.13 80 1013.6
20260506165530 60 322 1.7 6.1 0.00 0.24 0.13 80 1013.6
20260506164521 60 302 2.6 7.8 0.00 0.24 0.13 80 1013.6
20260506163535 60 309 3.5 7.0 0.00 0.24 0.13 80 1013.6
20260506163025 60 354 3.5 7.0 0.00 0.24 0.13 80 1013.6
20260506162535 60 360 3.5 7.8 0.00 0.24 0.13 80 1013.7
20260506162038 60 326 5.2 7.8 0.00 0.24 0.13 80 1013.7
20260506161525 60 356 4.3 7.0 0.00 0.24 0.13 80 1013.7
20260506161032 59 328 3.5 7.8 0.00 0.24 0.13 80 1013.8
20260506160554 59 325 4.3 7.8 0.00 0.24 0.13 80 1013.8
20260506160037 59 302 4.3 8.7 0.00 0.24 0.13 80 1013.8
20260506155525 60 323 4.3 8.7 0.00 0.24 0.13 80 1013.9
20260506155039 60 359 5.2 7.8 0.00 0.24 0.13 80 1013.9
20260506154525 60 350 4.3 8.7 0.00 0.24 0.13 80 1013.9
20260506154035 61 290 2.6 8.7 0.00 0.24 0.13 80 1014.0
20260506153523 60 297 4.3 7.0 0.00 0.24 0.13 80 1014.0
20260506153029 60 311 4.3 8.7 0.00 0.24 0.13 80 1014.0
20260506152538 60 297 4.3 8.7 0.00 0.24 0.13 80 1014.1
20260506152023 60 327 2.6 6.1 0.00 0.24 0.13 80 1014.1
20260506150602 60 340 6.1 9.6 0.00 0.24 0.13 80 1014.1
20260506150024 60 323 3.5 9.6 0.00 0.24 0.13 80 1014.1
20260506145035 61 339 4.3 9.6 0.00 0.29 0.13 80 1014.2
20260506144524 61 329 5.2 9.6 0.00 0.29 0.13 80 1014.2
20260506144035 60 301 3.5 8.7 0.00 0.29 0.13 80 1014.3
20260506142523 61 346 5.2 9.6 0.00 0.29 0.13 80 1014.4
20260506142031 61 359 2.6 7.8 0.00 0.29 0.13 80 1014.4
20260506141540 60 250 5.2 9.6 0.00 0.29 0.13 80 1014.4
20260506141040 60 295 3.5 10.4 0.00 0.29 0.13 80 1014.5
20260506135534 61 347 6.1 9.6 0.00 0.29 0.13 80 1014.6
20260506135039 61 290 2.6 8.7 0.00 0.29 0.13 80 1014.6
20260506134527 61 302 3.5 10.4 0.00 0.29 0.13 80 1014.6
20260506134030 61 307 7.8 10.4 0.00 0.29 0.13 80 1014.7
20260506133523 61 303 6.1 9.6 0.00 0.29 0.13 80 1014.7
20260506132539 61 333 5.2 10.4 0.00 0.29 0.13 80 1014.6
20260506132026 61 276 6.1 10.4 0.00 0.29 0.13 80 1014.6
20260506131039 62 295 7.8 12.2 0.00 0.29 0.13 80 1014.6
20260506130559 61 285 7.0 9.6 0.00 0.29 0.13 80 1014.6
20260506130040 61 339 7.0 9.6 0.00 0.29 0.13 80 1014.6
20260506125039 61 292 5.2 10.4 0.00 0.29 0.13 80 1014.7
20260506124527 61 312 4.3 12.2 0.00 0.29 0.13 80 1014.7
20260506124029 61 294 5.2 12.2 0.00 0.29 0.13 80 1014.7
20260506123522 61 304 6.1 11.3 0.00 0.29 0.13 80 1014.7
20260506122539 61 295 6.1 11.3 0.00 0.29 0.13 80 1014.7
20260506122024 61 278 5.2 10.4 0.00 0.29 0.13 80 1014.7
20260506121533 61 289 7.8 10.4 0.00 0.29 0.13 80 1014.7
20260506121021 61 290 6.1 11.3 0.00 0.29 0.13 80 1014.7
20260506120543 61 257 5.2 11.3 0.00 0.29 0.13 80 1014.7
20260506120025 61 248 4.3 11.3 0.00 0.29 0.13 80 1014.7
20260506115535 61 311 6.1 12.2 0.00 0.29 0.13 80 1014.7
20260506115038 60 224 5.2 12.2 0.00 0.29 0.13 80 1014.6
20260506114529 60 248 4.3 9.6 0.00 0.29 0.13 80 1014.6
20260506113524 60 269 4.3 12.2 0.00 0.29 0.13 80 1014.6
20260506113030 60 317 7.0 11.3 0.00 0.29 0.13 80 1014.6
20260506112025 60 272 6.1 11.3 0.00 0.29 0.13 80 1014.6
20260506111024 60 283 7.8 12.2 0.00 0.29 0.13 80 1014.6
20260506110603 60 255 5.2 13.0 0.00 0.29 0.13 80 1014.6
20260506105531 60 295 4.3 12.2 0.00 0.29 0.13 80 1014.6
20260506105036 60 317 3.5 10.4 0.00 0.29 0.13 80 1014.6
20260506103035 60 313 7.0 12.2 0.01 0.29 0.13 80 1014.6
20260506102034 59 250 3.5 11.3 0.01 0.29 0.13 80 1014.6
20260506101539 59 250 3.5 10.4 0.01 0.29 0.13 80 1014.6
20260506101025 59 253 4.3 10.4 0.01 0.29 0.13 80 1014.6
20260506100544 59 236 4.3 10.4 0.01 0.29 0.13 80 1014.6
20260506095540 58 228 7.0 9.6 0.02 0.29 0.13 80 1014.5
20260506095026 57 300 4.3 9.6 0.02 0.29 0.13 80 1014.5
20260506094035 57 258 3.5 14.8 0.03 0.29 0.13 80 1014.5
20260506093032 56 248 3.5 9.6 0.02 0.28 0.12 80 1014.5
20260506092523 56 249 4.3 12.2 0.02 0.28 0.12 80 1014.5
20260506092029 56 259 7.0 12.2 0.02 0.28 0.12 80 1014.5
20260506091538 56 271 5.2 13.9 0.02 0.28 0.12 80 1014.5
20260506091024 56 276 2.6 15.6 0.02 0.28 0.12 80 1014.4
20260506090546 57 226 7.0 15.6 0.02 0.28 0.12 80 1014.4
20260506090030 57 297 3.5 13.9 0.02 0.28 0.11 80 1014.4
20260506085537 57 271 7.0 11.3 0.02 0.28 0.11 80 1014.4
20260506084027 57 289 4.3 11.3 0.00 0.26 0.09 80 1014.3
20260506083535 57 266 6.1 10.4 0.00 0.26 0.09 80 1014.3
20260506083026 57 262 4.3 11.3 0.00 0.26 0.09 80 1014.3
20260506082020 57 266 4.3 15.6 0.00 0.26 0.09 80 1014.2
20260506081530 57 267 5.2 11.3 0.00 0.26 0.09 80 1014.2
20260506081036 57 263 4.3 11.3 0.00 0.26 0.09 80 1014.1
20260506080557 57 259 4.3 12.2 0.00 0.26 0.09 80 1014.1
20260506073523 57 238 7.0 13.0 0.00 0.26 0.09 80 1013.9
20260506073029 57 256 4.3 15.6 0.00 0.26 0.09 80 1013.9
20260506072025 57 290 7.0 15.6 0.00 0.26 0.09 80 1013.8
20260506071535 56 338 4.3 11.3 0.00 0.26 0.09 80 1013.8
20260506071022 56 248 4.3 10.4 0.00 0.26 0.09 80 1013.8
20260506070544 56 252 5.2 9.6 0.00 0.26 0.09 80 1013.8
20260506062028 54 182 4.3 8.7 0.00 0.26 0.09 80 1013.5
20260506061536 54 247 4.3 8.7 0.00 0.26 0.09 80 1013.5
20260506060601 53 269 0.9 4.3 0.00 0.26 0.09 80 1013.5
20260506051025 52 225 0.9 6.1 0.00 0.26 0.09 80 1013.1
20260506050546 52 219 1.7 6.1 0.00 0.26 0.09 80 1013.1
20260506045024 52 235 0.9 5.2 0.00 0.26 0.09 80 1013.1
20260506044535 52 233 2.6 6.1 0.00 0.26 0.09 80 1013.1
20260506044038 52 211 3.5 7.8 0.00 0.26 0.09 80 1013.1
20260506043526 52 232 1.7 7.8 0.00 0.26 0.09 80 1013.1
20260506043033 52 229 4.3 7.8 0.00 0.26 0.09 80 1013.1
20260506042522 52 229 2.6 6.1 0.00 0.26 0.09 80 1013.1
20260506042026 52 204 2.6 8.7 0.00 0.26 0.09 80 1013.1
20260506041537 52 221 3.5 8.7 0.00 0.26 0.09 80 1013.1
20260506041028 52 240 1.7 4.3 0.00 0.26 0.09 80 1013.3
20260506040552 52 224 1.7 6.1 0.01 0.26 0.09 80 1013.3
20260506040034 52 194 2.6 6.1 0.01 0.26 0.09 80 1013.3
20260506035522 52 174 1.7 6.1 0.02 0.26 0.09 80 1013.4
20260506035027 52 238 3.5 6.1 0.02 0.26 0.09 80 1013.4
20260506034534 52 248 3.5 6.1 0.02 0.26 0.09 80 1013.4
20260506034038 52 226 3.5 5.2 0.02 0.26 0.09 80 1013.5
20260506033527 52 216 2.6 5.2 0.02 0.26 0.09 80 1013.5
20260506033031 52 250 2.6 5.2 0.02 0.26 0.09 80 1013.5
20260506032520 52 222 1.7 5.2 0.02 0.26 0.09 80 1013.5
20260506032030 52 219 1.7 5.2 0.02 0.26 0.09 80 1013.5
20260506031539 52 233 0.9 7.8 0.02 0.26 0.09 80 1013.5
20260506030543 52 231 2.6 4.3 0.02 0.25 0.09 80 1013.6
20260506030030 52 222 1.7 7.8 0.02 0.25 0.09 80 1013.6
20260506025539 52 249 2.6 7.8 0.01 0.24 0.08 80 1013.4
20260506025026 52 185 2.6 6.1 0.01 0.24 0.07 80 1013.4
20260506024532 52 238 2.6 5.2 0.01 0.24 0.07 80 1013.4
20260506024036 52 222 2.6 5.2 0.02 0.24 0.07 80 1013.4
20260506023522 52 208 2.6 7.8 0.02 0.24 0.07 80 1013.4
20260506023028 52 186 3.5 7.8 0.02 0.24 0.07 80 1013.4
20260506022024 53 192 2.6 7.8 0.02 0.24 0.07 80 1013.5
20260506021537 53 192 3.5 7.8 0.02 0.24 0.07 80 1013.5
20260506021021 53 210 2.6 8.7 0.02 0.24 0.07 80 1013.5
20260506020029 53 274 4.3 9.6 0.02 0.24 0.07 80 1013.5
20260506015026 53 217 1.7 6.1 0.02 0.24 0.06 80 1013.6
20260506014534 53 217 1.7 6.1 0.02 0.24 0.06 80 1013.6
20260506013528 53 208 2.6 8.7 0.01 0.23 0.06 80 1013.7
20260506013031 53 194 2.6 6.1 0.00 0.22 0.05 80 1013.7
20260506012520 53 227 3.5 7.8 0.00 0.22 0.05 80 1013.7
20260506012025 53 203 2.6 7.8 0.00 0.22 0.05 80 1013.7
20260506011537 53 187 1.7 4.3 0.01 0.22 0.05 80 1013.7
20260506011039 53 217 0.9 4.3 0.02 0.22 0.05 80 1013.9
20260506010601 53 195 1.7 5.2 0.03 0.22 0.05 80 1013.9
20260506010024 53 210 0.9 4.3 0.05 0.22 0.05 80 1013.9
20260506005532 53 161 2.6 5.2 0.05 0.22 0.05 80 1014.1
20260506005036 53 226 2.6 5.2 0.05 0.24 0.05 80 1014.1
20260506004525 53 233 0.9 5.2 0.05 0.24 0.05 80 1014.1
20260506003540 53 248 3.5 9.6 0.07 0.24 0.05 80 1014.2
20260506003025 53 255 2.6 9.6 0.07 0.24 0.05 80 1014.2
20260506002533 54 224 3.5 11.3 0.07 0.24 0.05 80 1014.2
20260506002021 54 272 3.5 14.8 0.09 0.24 0.05 80 1014.2
20260506001530 54 188 7.0 17.4 0.09 0.23 0.04 80 1014.2
20260506001036 54 308 6.1 17.4 0.08 0.22 0.03 80 1014.2
20260506000557 54 217 4.3 12.2 0.06 0.20 0.02 80 1014.2
20260506000038 54 277 5.2 10.4 0.06 0.20 0.01 80 1014.2
20260505235526 53 276 5.2 14.8 0.05 0.19 0.19 80 1014.5
20260505235031 53 288 4.3 14.8 0.05 0.24 0.19 80 1014.5
20260505234537 53 295 4.3 9.6 0.05 0.24 0.19 80 1014.5
20260505234023 53 279 3.5 7.8 0.03 0.22 0.17 80 1014.2
20260505233532 53 267 3.5 7.8 0.02 0.21 0.17 80 1014.2
20260505233022 53 213 3.5 7.8 0.02 0.21 0.17 80 1014.2
20260505232530 53 221 3.5 6.1 0.02 0.21 0.17 80 1014.2
20260505232034 53 193 1.7 7.8 0.01 0.20 0.15 80 1014.2
20260505231521 53 133 3.5 7.8 0.00 0.19 0.14 80 1014.2
20260505231027 53 194 1.7 7.8 0.00 0.19 0.14 80 1014.2
20260505230550 53 212 2.6 7.8 0.00 0.19 0.14 80 1014.2
20260505225526 54 198 2.6 7.8 0.00 0.19 0.14 80 1014.4
20260505225032 54 236 3.5 9.6 0.01 0.22 0.14 80 1014.4
20260505224539 54 238 3.5 9.6 0.01 0.22 0.14 80 1014.4
20260505224028 54 200 2.6 9.6 0.01 0.22 0.14 80 1014.5
20260505223040 54 217 4.3 8.7 0.02 0.22 0.14 80 1014.5
20260505222528 54 240 1.7 6.1 0.02 0.22 0.14 80 1014.4
20260505222034 54 260 1.7 6.1 0.02 0.22 0.14 80 1014.4
20260505221523 54 191 2.6 6.1 0.02 0.22 0.14 80 1014.4
20260505220554 55 221 0.9 5.2 0.02 0.22 0.14 80 1014.5
20260505220035 55 244 1.7 5.2 0.02 0.22 0.14 80 1014.5
20260505215523 55 221 0.9 5.2 0.02 0.22 0.14 80 1014.6
20260505215030 55 226 1.7 5.2 0.02 0.25 0.14 80 1014.6
20260505214523 55 314 0.9 7.8 0.02 0.24 0.13 80 1014.6
20260505214027 55 254 0.9 7.8 0.02 0.24 0.13 80 1014.6
20260505213536 55 274 1.7 8.7 0.01 0.24 0.13 80 1014.6
20260505213037 55 250 1.7 8.7 0.01 0.24 0.13 80 1014.6
20260505212524 55 231 3.5 7.0 0.01 0.24 0.13 80 1014.6
20260505212030 55 217 1.7 6.1 0.01 0.24 0.13 80 1014.6
20260505211539 55 222 3.5 6.1 0.01 0.24 0.13 80 1014.6
20260505211024 55 212 1.7 6.1 0.01 0.24 0.13 80 1014.7
20260505210546 55 226 1.7 6.1 0.00 0.23 0.12 80 1014.7
20260505210029 55 198 0.9 4.3 0.00 0.23 0.12 80 1014.7
20260505205523 55 217 0.9 4.3 0.00 0.23 0.12 80 1014.6
20260505205030 55 224 0.9 4.3 0.00 0.25 0.12 80 1014.6
20260505204539 55 219 1.7 4.3 0.00 0.25 0.12 80 1014.6
20260505204027 55 212 1.7 5.2 0.00 0.25 0.12 80 1014.6
20260505203534 55 182 2.6 5.2 0.00 0.25 0.12 80 1014.6
20260505203037 55 203 0.9 5.2 0.00 0.25 0.12 80 1014.6
20260505202526 55 198 0.9 4.3 0.00 0.25 0.12 80 1014.4
20260505201523 55 195 1.7 6.1 0.00 0.25 0.12 80 1014.4
20260505201037 55 207 2.6 6.1 0.00 0.25 0.12 80 1014.2
20260505200558 55 262 0.9 2.6 0.00 0.25 0.12 80 1014.2
20260505200026 55 262 0.0 2.6 0.00 0.25 0.12 80 1014.2
20260505195536 55 258 0.0 5.2 0.00 0.25 0.12 80 1014.1